Regional Weather Roundup
Issued by NWS

Home | Current Version | Previous Version | Graphics & Text | Print | Product List | Glossary On
Versions: 1 2 3 4 5 6 7 8 9 10 11 12 13 14 15 16 17 18 19 20 21 22 23 24 25 26 27 28 29 30 31 32 33 34 35 36 37 38 39 40 41 42 43 44 45 46 47 48 49 50
000
ASUS43 KLMK 202310
RWRKY
KENTUCKY REGIONAL WEATHER ROUNDUP
NATIONAL WEATHER SERVICE LOUISVILLE KY
700 PM EDT FRI OCT 20 2017

NOTE "FAIR" INDICATES FEW OR NO CLOUDS BELOW 12,000 FEET
WITH NO SIGNIFICANT WEATHER AND/OR OBSTRUCTIONS TO VISIBILITY.

KYZ001>023-026-027-061>063-070>075-210000-
WESTERN AND SOUTH CENTRAL KENTUCKY

CITY           SKY/WX    TMP DP  RH WIND       PRES   REMARKS
PADUCAH        CLOUDY    68  49  50 SE6       30.13S
HENDERSON      CLOUDY    68  52  56 SE3       30.15S
OWENSBORO      CLOUDY    69  52  54 S5        30.16S
HOPKINSVILLE   CLOUDY    70  48  46 CALM      30.16R
BOWLING GREEN  CLEAR     67  51  56 CALM      30.17S
GLASGOW        CLEAR     65  49  56 CALM      30.18R
$$

KYZ024-025-028>034-038-045-046-053-210000-
NORTH CENTRAL KENTUCKY

CITY           SKY/WX    TMP DP  RH WIND       PRES   REMARKS
LOUISVILLE/SDF MOCLDY    74  50  42 S5        30.17S
LOUISVILLE/LOU CLEAR     73  48  41 CALM      30.18S
FORT KNOX      CLEAR     67  52  59 CALM      30.16S
$$

KYZ035>037-039>044-047>052-055>060-089>105-210000-
NORTHEAST KENTUCKY

CITY           SKY/WX    TMP DP  RH WIND       PRES   REMARKS
LEXINGTON      CLEAR     70  51  51 SE5       30.20F
COVINGTON      MOCLDY    67  54  63 S5        30.19S
FRANKFORT      CLEAR     69  50  50 SE3       30.19S
$$

KYZ054-064>069-076>088-106>120-210000-
SOUTHEAST KENTUCKY

CITY           SKY/WX    TMP DP  RH WIND       PRES   REMARKS
JACKSON        CLEAR     67  51  56 CALM      30.23R
LONDON         CLEAR     68  50  52 CALM      30.21S
SOMERSET       CLEAR     68  50  52 CALM      30.21S
MIDDLESBORO    CLEAR     63  51  64 CALM      30.22R
MONTICELLO     CLEAR     62  53  72 CALM      30.21S
$$




USA.gov is the U.S. government's official web portal to all federal, state and local government web resources and services.